Regional Weather Roundup
Issued by NWS Nashville, TN

Home | Current Version | Previous Version | Text Only | Print | Product List | Glossary On
Versions: 1 2 3 4 5 6 7 8 9 10 11 12 13 14 15 16 17 18 19 20 21 22 23 24 25 26 27 28 29 30 31 32 33 34 35 36 37 38 39 40 41 42 43 44 45 46 47 48 49 50
000
ASUS44 KOHX 242015
RWROHX
MIDDLE TENNESSEE HOURLY WEATHER ROUNDUP
NATIONAL WEATHER SERVICE NASHVILLE TN
300 PM CDT THU JUL 24 2014

NOTE: "FAIR" INDICATES FEW OR NO CLOUDS BELOW 12,000 FEET WITH
NO SIGNIFICANT WEATHER AND/OR OBSTRUCTIONS TO VISIBILITY.

* THESE REPORTS ARE NOT UNDER NWS QUALITY CONTROL AND MAY NOT
  REPORT WEATHER SUCH AS PRECIPITATION AND FOG.


TNZ005>011-023>034-057-059-062>066-078-080-242100
...NORTHERN MIDDLE TENNESSEE...

CITY           SKY/WX    TMP DP  RH WIND       PRES   REMARKS
CLARKSVILLE    MOSUNNY   82  60  47 N9G17     30.02S
CROSSVILLE     MOSUNNY   77  67  71 N9        30.02S
GALLATIN         N/A     84  64  50 N6        30.00
DICKSON        MOSUNNY   79  63  57 N10       30.02S
LEBANON        SUNNY     81  66  60 W8        29.98F
LIVINGSTON     PTSUNNY   76  65  68 N7        30.02S
NASHVILLE      MOSUNNY   82  65  56 VRB6      30.01F
WEST NASHVILLE   N/A     82  61  47 NW12      30.00F
PORTLAND       MOSUNNY   82  63  51 N9        30.00S
SMYRNA         MOSUNNY   86  68  54 N8        30.01S
SPARTA         MOSUNNY   81  70  69 N8        29.99F
$$
TNZ056-058-060-061-075>077-079-093>097-242100
...SOUTHERN MIDDLE TENNESSEE...

CITY           SKY/WX    TMP DP  RH WIND       PRES   REMARKS
COLUMBIA       MOSUNNY   84  66  54 N6        29.99R
FAYETTEVILLE   SUNNY     81  64  57 NW10      29.98F
LEWISBURG      MOSUNNY   84  66  54 N8        29.98F
MCMINNVILLE    PTSUNNY   81  72  74 NW12      29.99S
MURFREESBORO   MOSUNNY   79  66  64 N8        29.99F
SHELBYVILLE    MOSUNNY   82  72  69 N10       29.99F
TULLAHOMA      MOSUNNY   82  66  57 NW10      29.99F
WINCHESTER     SUNNY     82  66  57 NW6       29.98F
$$


...KEY TO REMARKS...
VSB - VISIBILITY IN MILES
WCI - WIND CHILL INDEX
HX  - HEAT INDEX




USA.gov is the U.S. government's official web portal to all federal, state and local government web resources and services.